Time,TemperatureF,DewpointF,PressureIn,WindDirection,WindDirectionDegrees,WindSpeedMPH,WindSpeedGustMPH,Humidity,HourlyPrecipIn,Conditions,Clouds,dailyrainin,SoftwareType,DateUTC
2013-05-12 00:04:00,62.1,51.4,30.05,SSW,208,8.0,8.0,68,0.00,,,0.00,Wunderground v.1.15,2013-05-12 07:04:00,
2013-05-12 00:10:00,62.0,51.7,30.05,SSW,198,5.0,6.0,69,0.00,,,0.00,Wunderground v.1.15,2013-05-12 07:10:00,
2013-05-12 00:16:00,61.7,51.8,30.05,SSW,204,5.0,12.0,70,0.00,,,0.00,Wunderground v.1.15,2013-05-12 07:16:00,
2013-05-12 00:22:00,61.4,51.9,30.05,South,190,7.0,7.0,71,0.00,,,0.00,Wunderground v.1.15,2013-05-12 07:22:00,
2013-05-12 00:28:00,61.0,51.9,30.05,South,182,9.0,9.0,72,0.00,,,0.00,Wunderground v.1.15,2013-05-12 07:28:00,
2013-05-12 00:33:00,60.6,51.9,30.05,South,186,5.0,9.0,73,0.00,,,0.00,Wunderground v.1.15,2013-05-12 07:33:00,
2013-05-12 00:39:00,60.2,51.9,30.05,SSW,197,11.0,11.0,74,0.00,,,0.00,Wunderground v.1.15,2013-05-12 07:39:00,
2013-05-12 00:45:00,59.9,52.0,30.05,SSW,201,6.0,10.0,75,0.00,,,0.00,Wunderground v.1.15,2013-05-12 07:45:00,
2013-05-12 00:51:00,59.9,52.0,30.05,South,184,5.0,7.0,75,0.00,,,0.00,Wunderground v.1.15,2013-05-12 07:51:00,
2013-05-12 00:57:00,59.9,52.0,30.05,South,177,5.0,8.0,75,0.00,,,0.00,Wunderground v.1.15,2013-05-12 07:57:00,
2013-05-12 01:03:00,60.2,52.2,30.05,SSW,201,5.0,7.0,75,0.00,,,0.00,Wunderground v.1.15,2013-05-12 08:03:00,
2013-05-12 01:09:00,60.4,52.1,30.05,SSW,196,5.0,7.0,74,0.00,,,0.00,Wunderground v.1.15,2013-05-12 08:09:00,
2013-05-12 01:14:00,60.4,52.1,30.06,South,188,4.0,6.0,74,0.00,,,0.00,Wunderground v.1.15,2013-05-12 08:14:00,
2013-05-12 01:20:00,60.4,52.1,30.05,SSW,192,6.0,6.0,74,0.00,,,0.00,Wunderground v.1.15,2013-05-12 08:20:00,
2013-05-12 01:26:00,60.3,52.0,30.05,SSW,192,4.0,6.0,74,0.00,,,0.00,Wunderground v.1.15,2013-05-12 08:26:00,
2013-05-12 01:32:00,60.2,51.9,30.05,South,190,8.0,8.0,74,0.00,,,0.00,Wunderground v.1.15,2013-05-12 08:32:00,
2013-05-12 01:37:00,59.9,52.0,30.05,SSW,200,6.0,8.0,75,0.00,,,0.00,Wunderground v.1.15,2013-05-12 08:37:00,
2013-05-12 01:43:00,59.6,51.7,30.05,SSW,196,6.0,7.0,75,0.00,,,0.00,Wunderground v.1.15,2013-05-12 08:43:00,
2013-05-12 01:49:00,59.6,51.7,30.05,SSW,196,5.0,7.0,75,0.00,,,0.00,Wunderground v.1.15,2013-05-12 08:49:00,
2013-05-12 01:55:00,59.5,51.6,30.05,SSW,209,7.0,7.0,75,0.00,,,0.00,Wunderground v.1.15,2013-05-12 08:55:00,
2013-05-12 02:01:00,59.6,51.3,30.05,South,191,4.0,5.0,74,0.00,,,0.00,Wunderground v.1.15,2013-05-12 09:01:00,
2013-05-12 02:06:00,59.8,51.5,30.05,SSW,204,5.0,8.0,74,0.00,,,0.00,Wunderground v.1.15,2013-05-12 09:06:00,
2013-05-12 02:11:00,59.9,51.2,30.05,SSW,210,4.0,7.0,73,0.00,,,0.00,Wunderground v.1.15,2013-05-12 09:11:00,
2013-05-12 02:16:00,59.9,51.2,30.05,SSW,200,4.0,7.0,73,0.00,,,0.00,Wunderground v.1.15,2013-05-12 09:16:00,
2013-05-12 02:21:00,59.8,51.1,30.05,SSW,206,3.0,7.0,73,0.00,,,0.00,Wunderground v.1.15,2013-05-12 09:21:00,
2013-05-12 02:26:00,59.8,51.1,30.04,South,189,4.0,7.0,73,0.00,,,0.00,Wunderground v.1.15,2013-05-12 09:26:00,
2013-05-12 02:31:00,59.6,50.9,30.04,SSW,200,4.0,7.0,73,0.00,,,0.00,Wunderground v.1.15,2013-05-12 09:31:00,
2013-05-12 02:36:00,59.3,51.0,30.04,SW,217,6.0,8.0,74,0.00,,,0.00,Wunderground v.1.15,2013-05-12 09:36:00,
2013-05-12 02:41:00,58.9,50.6,30.04,SSW,213,7.0,8.0,74,0.00,,,0.00,Wunderground v.1.15,2013-05-12 09:41:00,
2013-05-12 02:46:00,58.7,50.8,30.04,SSW,202,5.0,8.0,75,0.00,,,0.00,Wunderground v.1.15,2013-05-12 09:46:00,
2013-05-12 02:51:00,58.5,51.0,30.04,SW,220,8.0,9.0,76,0.00,,,0.00,Wunderground v.1.15,2013-05-12 09:51:00,
2013-05-12 02:56:00,58.4,50.9,30.04,SSW,206,3.0,9.0,76,0.00,,,0.00,Wunderground v.1.15,2013-05-12 09:56:00,
2013-05-12 03:01:00,58.3,50.8,30.04,SSW,194,5.0,7.0,76,0.00,,,0.00,Wunderground v.1.15,2013-05-12 10:01:00,
2013-05-12 03:06:00,58.2,51.0,30.04,SSW,206,7.0,7.0,77,0.00,,,0.00,Wunderground v.1.15,2013-05-12 10:06:00,
2013-05-12 03:11:00,58.2,51.0,30.04,SSW,209,2.0,6.0,77,0.00,,,0.00,Wunderground v.1.15,2013-05-12 10:11:00,
2013-05-12 03:16:00,58.5,51.0,30.03,SSW,209,3.0,7.0,76,0.00,,,0.00,Wunderground v.1.15,2013-05-12 10:16:00,
2013-05-12 03:21:00,58.7,51.2,30.04,SSW,209,5.0,5.0,76,0.00,,,0.00,Wunderground v.1.15,2013-05-12 10:21:00,
2013-05-12 03:26:00,59.0,51.1,30.03,SSW,208,4.0,7.0,75,0.00,,,0.00,Wunderground v.1.15,2013-05-12 10:26:00,
2013-05-12 03:31:00,59.3,51.4,30.03,SSW,205,3.0,6.0,75,0.00,,,0.00,Wunderground v.1.15,2013-05-12 10:31:00,
2013-05-12 03:36:00,59.5,51.6,30.03,SSW,202,3.0,7.0,75,0.00,,,0.00,Wunderground v.1.15,2013-05-12 10:36:00,
2013-05-12 03:42:00,59.8,51.5,30.03,SSW,211,3.0,7.0,74,0.00,,,0.00,Wunderground v.1.15,2013-05-12 10:42:00,
2013-05-12 03:47:00,60.1,51.8,30.03,South,190,1.0,9.0,74,0.00,,,0.00,Wunderground v.1.15,2013-05-12 10:47:00,
2013-05-12 03:52:00,60.4,51.7,30.03,SSW,200,5.0,6.0,73,0.00,,,0.00,Wunderground v.1.15,2013-05-12 10:52:00,
2013-05-12 03:57:00,60.7,52.0,30.03,SSW,213,3.0,8.0,73,0.00,,,0.00,Wunderground v.1.15,2013-05-12 10:57:00,
2013-05-12 04:02:00,60.9,51.8,30.03,SSW,192,3.0,8.0,72,0.00,,,0.00,Wunderground v.1.15,2013-05-12 11:02:00,
2013-05-12 04:07:00,60.9,51.8,30.03,SSW,211,3.0,9.0,72,0.00,,,0.00,Wunderground v.1.15,2013-05-12 11:07:00,
2013-05-12 04:12:00,60.7,51.6,30.03,SW,223,3.0,8.0,72,0.00,,,0.00,Wunderground v.1.15,2013-05-12 11:12:00,
2013-05-12 04:17:00,60.5,51.4,30.03,SSW,209,4.0,8.0,72,0.00,,,0.00,Wunderground v.1.15,2013-05-12 11:17:00,
2013-05-12 04:22:00,60.4,51.7,30.03,SSW,194,5.0,6.0,73,0.00,,,0.00,Wunderground v.1.15,2013-05-12 11:22:00,
2013-05-12 04:27:00,60.3,51.6,30.03,SSW,193,4.0,7.0,73,0.00,,,0.00,Wunderground v.1.15,2013-05-12 11:27:00,
2013-05-12 04:32:00,60.1,51.4,30.03,SSW,198,0.0,5.0,73,0.00,,,0.00,Wunderground v.1.15,2013-05-12 11:32:00,
2013-05-12 04:37:00,60.0,51.3,30.03,SSW,203,6.0,6.0,73,0.00,,,0.00,Wunderground v.1.15,2013-05-12 11:37:00,
2013-05-12 04:42:00,59.9,51.2,30.03,SSW,203,3.0,4.0,73,0.00,,,0.00,Wunderground v.1.15,2013-05-12 11:42:00,
2013-05-12 04:47:00,59.8,51.1,30.03,SSW,203,4.0,6.0,73,0.00,,,0.00,Wunderground v.1.15,2013-05-12 11:47:00,
2013-05-12 04:52:00,59.8,51.1,30.03,SSW,203,2.0,5.0,73,0.00,,,0.00,Wunderground v.1.15,2013-05-12 11:52:00,
2013-05-12 04:57:00,59.7,51.4,30.03,SSW,194,6.0,9.0,74,0.00,,,0.00,Wunderground v.1.15,2013-05-12 11:57:00,
2013-05-12 05:02:00,59.5,51.6,30.03,SW,223,9.0,9.0,75,0.00,,,0.00,Wunderground v.1.15,2013-05-12 12:02:00,
2013-05-12 05:07:00,59.2,51.3,30.04,SSW,204,6.0,10.0,75,0.00,,,0.00,Wunderground v.1.15,2013-05-12 12:07:00,
2013-05-12 05:12:00,59.0,51.4,30.04,SSW,213,6.0,7.0,76,0.00,,,0.00,Wunderground v.1.15,2013-05-12 12:12:00,
2013-05-12 05:17:00,58.7,51.5,30.04,SW,219,6.0,7.0,77,0.00,,,0.00,Wunderground v.1.15,2013-05-12 12:17:00,
2013-05-12 05:22:00,58.5,51.7,30.04,SSW,197,3.0,8.0,78,0.00,,,0.00,Wunderground v.1.15,2013-05-12 12:22:00,
2013-05-12 05:27:00,58.3,51.5,30.04,SW,215,7.0,8.0,78,0.00,,,0.00,Wunderground v.1.15,2013-05-12 12:27:00,
2013-05-12 05:32:00,58.0,51.5,30.04,SW,221,3.0,9.0,79,0.00,,,0.00,Wunderground v.1.15,2013-05-12 12:32:00,
2013-05-12 05:37:00,57.7,51.2,30.04,SSW,213,3.0,9.0,79,0.00,,,0.00,Wunderground v.1.15,2013-05-12 12:37:00,
2013-05-12 05:42:00,57.5,51.4,30.04,SW,235,2.0,8.0,80,0.00,,,0.00,Wunderground v.1.15,2013-05-12 12:42:00,
2013-05-12 05:47:00,57.3,51.2,30.04,SW,223,3.0,8.0,80,0.00,,,0.00,Wunderground v.1.15,2013-05-12 12:47:00,
2013-05-12 05:52:00,57.2,51.1,30.04,SW,221,0.0,4.0,80,0.00,,,0.00,Wunderground v.1.15,2013-05-12 12:52:00,
2013-05-12 05:57:00,57.1,51.0,30.04,SW,221,0.0,4.0,80,0.00,,,0.00,Wunderground v.1.15,2013-05-12 12:57:00,
2013-05-12 06:02:00,57.0,51.2,30.04,SW,221,1.0,3.0,81,0.00,,,0.00,Wunderground v.1.15,2013-05-12 13:02:00,
2013-05-12 06:07:00,57.0,51.2,30.05,SW,221,0.0,3.0,81,0.00,,,0.00,Wunderground v.1.15,2013-05-12 13:07:00,
2013-05-12 06:12:00,57.0,50.9,30.05,SW,221,0.0,1.0,80,0.00,,,0.00,Wunderground v.1.15,2013-05-12 13:12:00,
2013-05-12 06:17:00,57.0,50.9,30.05,SW,221,0.0,1.0,80,0.00,,,0.00,Wunderground v.1.15,2013-05-12 13:17:00,
2013-05-12 06:22:00,57.0,50.9,30.05,SW,221,0.0,1.0,80,0.00,,,0.00,Wunderground v.1.15,2013-05-12 13:22:00,
2013-05-12 06:27:00,57.0,50.9,30.05,SW,221,0.0,1.0,80,0.00,,,0.00,Wunderground v.1.15,2013-05-12 13:27:00,
2013-05-12 06:32:00,57.0,50.9,30.05,SW,221,2.0,3.0,80,0.00,,,0.00,Wunderground v.1.15,2013-05-12 13:32:00,
2013-05-12 06:37:00,57.1,51.0,30.05,SW,221,1.0,3.0,80,0.00,,,0.00,Wunderground v.1.15,2013-05-12 13:37:00,
2013-05-12 06:42:00,57.4,51.3,30.05,SW,221,3.0,6.0,80,0.00,,,0.00,Wunderground v.1.15,2013-05-12 13:42:00,
2013-05-12 06:47:00,57.7,51.2,30.06,South,182,3.0,6.0,79,0.00,,,0.00,Wunderground v.1.15,2013-05-12 13:47:00,
2013-05-12 06:52:00,58.0,51.5,30.06,South,184,4.0,5.0,79,0.00,,,0.00,Wunderground v.1.15,2013-05-12 13:52:00,
2013-05-12 06:57:00,58.4,51.6,30.06,SSW,205,3.0,7.0,78,0.00,,,0.00,Wunderground v.1.15,2013-05-12 13:57:00,
2013-05-12 07:02:00,58.9,51.7,30.06,SSW,207,5.0,7.0,77,0.00,,,0.00,Wunderground v.1.15,2013-05-12 14:02:00,
2013-05-12 07:07:00,59.4,51.8,30.06,SW,222,4.0,7.0,76,0.00,,,0.00,Wunderground v.1.15,2013-05-12 14:07:00,
2013-05-12 07:12:00,59.9,52.0,30.06,SSW,213,2.0,8.0,75,0.00,,,0.00,Wunderground v.1.15,2013-05-12 14:12:00,
2013-05-12 07:17:00,60.2,52.2,30.06,SSW,204,7.0,9.0,75,0.00,,,0.00,Wunderground v.1.15,2013-05-12 14:17:00,
2013-05-12 07:22:00,60.3,52.3,30.06,SSW,194,4.0,8.0,75,0.00,,,0.00,Wunderground v.1.15,2013-05-12 14:22:00,
2013-05-12 07:27:00,60.4,52.4,30.06,SSW,201,6.0,10.0,75,0.00,,,0.00,Wunderground v.1.15,2013-05-12 14:27:00,
2013-05-12 07:32:00,60.5,52.5,30.07,SSW,210,2.0,7.0,75,0.00,,,0.00,Wunderground v.1.15,2013-05-12 14:32:00,
2013-05-12 07:37:00,60.7,52.7,30.07,SSW,213,5.0,7.0,75,0.00,,,0.00,Wunderground v.1.15,2013-05-12 14:37:00,
2013-05-12 07:42:00,61.0,52.7,30.07,SSW,203,5.0,10.0,74,0.00,,,0.00,Wunderground v.1.15,2013-05-12 14:42:00,
2013-05-12 07:47:00,61.2,52.8,30.07,SW,217,2.0,10.0,74,0.00,,,0.00,Wunderground v.1.15,2013-05-12 14:47:00,
2013-05-12 07:52:00,61.5,53.1,30.07,South,186,3.0,9.0,74,0.00,,,0.00,Wunderground v.1.15,2013-05-12 14:52:00,
2013-05-12 07:57:00,61.9,53.1,30.07,SW,226,3.0,9.0,73,0.00,,,0.00,Wunderground v.1.15,2013-05-12 14:57:00,
2013-05-12 08:02:00,62.3,53.2,30.07,South,186,7.0,7.0,72,0.00,,,0.00,Wunderground v.1.15,2013-05-12 15:02:00,
2013-05-12 08:07:00,62.7,53.2,30.07,SW,220,8.0,10.0,71,0.00,,,0.00,Wunderground v.1.15,2013-05-12 15:07:00,
2013-05-12 08:12:00,63.1,53.5,30.07,SSW,205,7.0,8.0,71,0.00,,,0.00,Wunderground v.1.15,2013-05-12 15:12:00,
2013-05-12 08:17:00,63.4,53.4,30.07,SSW,205,7.0,9.0,70,0.00,,,0.00,Wunderground v.1.15,2013-05-12 15:17:00,
2013-05-12 08:22:00,63.8,53.8,30.07,SSW,202,3.0,6.0,70,0.00,,,0.00,Wunderground v.1.15,2013-05-12 15:22:00,
2013-05-12 08:27:00,64.3,53.9,30.07,SSW,208,7.0,9.0,69,0.00,,,0.00,Wunderground v.1.15,2013-05-12 15:27:00,
2013-05-12 08:32:00,64.8,54.0,30.07,SW,217,10.0,12.0,68,0.00,,,0.00,Wunderground v.1.15,2013-05-12 15:32:00,
2013-05-12 08:37:00,65.3,54.1,30.08,SSW,202,6.0,12.0,67,0.00,,,0.00,Wunderground v.1.15,2013-05-12 15:37:00,
2013-05-12 08:42:00,65.7,54.4,30.08,SSW,192,4.0,10.0,67,0.00,,,0.00,Wunderground v.1.15,2013-05-12 15:42:00,
2013-05-12 08:47:00,66.1,54.4,30.08,South,179,3.0,10.0,66,0.00,,,0.00,Wunderground v.1.15,2013-05-12 15:47:00,
2013-05-12 08:52:00,66.7,54.6,30.08,SSW,204,7.0,8.0,65,0.00,,,0.00,Wunderground v.1.15,2013-05-12 15:52:00,
2013-05-12 08:57:00,67.2,55.0,30.08,SSW,209,7.0,8.0,65,0.00,,,0.00,Wunderground v.1.15,2013-05-12 15:57:00,
2013-05-12 09:02:00,67.9,54.8,30.08,SW,216,4.0,9.0,63,0.00,,,0.00,Wunderground v.1.15,2013-05-12 16:02:00,
2013-05-12 09:07:00,68.4,54.9,30.08,South,188,3.0,9.0,62,0.00,,,0.00,Wunderground v.1.15,2013-05-12 16:07:00,
2013-05-12 09:12:00,69.0,55.4,30.08,SSW,202,5.0,6.0,62,0.00,,,0.00,Wunderground v.1.15,2013-05-12 16:12:00,
2013-05-12 09:17:00,69.7,55.2,30.08,SSW,194,4.0,7.0,60,0.00,,,0.00,Wunderground v.1.15,2013-05-12 16:17:00,
2013-05-12 09:22:00,70.3,55.3,30.08,South,191,4.0,7.0,59,0.00,,,0.00,Wunderground v.1.15,2013-05-12 16:22:00,
2013-05-12 09:27:00,71.0,55.5,30.08,SSE,149,6.0,7.0,58,0.00,,,0.00,Wunderground v.1.15,2013-05-12 16:27:00,
2013-05-12 09:32:00,71.6,55.6,30.08,South,176,4.0,7.0,57,0.00,,,0.00,Wunderground v.1.15,2013-05-12 16:32:00,
2013-05-12 09:37:00,72.2,55.6,30.08,South,174,10.0,10.0,56,0.00,,,0.00,Wunderground v.1.15,2013-05-12 16:37:00,
2013-05-12 09:42:00,72.4,55.8,30.08,South,174,6.0,10.0,56,0.00,,,0.00,Wunderground v.1.15,2013-05-12 16:42:00,
2013-05-12 09:47:00,72.8,56.2,30.08,SE,146,2.0,10.0,56,0.00,,,0.00,Wunderground v.1.15,2013-05-12 16:47:00,
2013-05-12 09:52:00,73.0,55.9,30.08,SSE,161,2.0,9.0,55,0.00,,,0.00,Wunderground v.1.15,2013-05-12 16:52:00,
2013-05-12 09:57:00,73.4,56.2,30.08,South,191,5.0,9.0,55,0.00,,,0.00,Wunderground v.1.15,2013-05-12 16:57:00,
2013-05-12 10:02:00,73.9,56.2,30.08,South,188,7.0,10.0,54,0.00,,,0.00,Wunderground v.1.15,2013-05-12 17:02:00,
2013-05-12 10:08:00,74.4,56.2,30.08,South,188,5.0,10.0,53,0.00,,,0.00,Wunderground v.1.15,2013-05-12 17:08:00,
2013-05-12 10:12:00,74.7,56.4,30.08,SSW,209,4.0,10.0,53,0.00,,,0.00,Wunderground v.1.15,2013-05-12 17:12:00,
2013-05-12 10:17:00,75.0,56.2,30.08,SSW,202,6.0,10.0,52,0.00,,,0.00,Wunderground v.1.15,2013-05-12 17:17:00,
2013-05-12 10:22:00,75.5,56.1,30.08,South,172,6.0,10.0,51,0.00,,,0.00,Wunderground v.1.15,2013-05-12 17:22:00,
2013-05-12 10:27:00,76.3,56.3,30.08,South,188,2.0,10.0,50,0.00,,,0.00,Wunderground v.1.15,2013-05-12 17:27:00,
2013-05-12 10:33:00,76.9,56.3,30.08,South,179,7.0,9.0,49,0.00,,,0.00,Wunderground v.1.15,2013-05-12 17:33:00,
2013-05-12 10:38:00,77.4,56.2,30.08,SSE,158,3.0,9.0,48,0.00,,,0.00,Wunderground v.1.15,2013-05-12 17:38:00,
2013-05-12 10:43:00,78.1,56.2,30.08,South,188,3.0,7.0,47,0.00,,,0.00,Wunderground v.1.15,2013-05-12 17:43:00,
2013-05-12 10:48:00,78.2,56.3,30.08,SSE,164,3.0,11.0,47,0.00,,,0.00,Wunderground v.1.15,2013-05-12 17:48:00,
2013-05-12 10:53:00,78.6,56.1,30.08,South,174,7.0,11.0,46,0.00,,,0.00,Wunderground v.1.15,2013-05-12 17:53:00,
2013-05-12 10:58:00,79.0,56.5,30.08,SSE,163,5.0,11.0,46,0.00,,,0.00,Wunderground v.1.15,2013-05-12 17:58:00,
2013-05-12 11:03:00,79.7,56.5,30.08,South,187,4.0,7.0,45,0.00,,,0.00,Wunderground v.1.15,2013-05-12 18:03:00,
2013-05-12 11:08:00,80.3,55.8,30.08,SW,216,4.0,10.0,43,0.00,,,0.00,Wunderground v.1.15,2013-05-12 18:08:00,
2013-05-12 11:13:00,80.7,56.1,30.08,South,190,2.0,12.0,43,0.00,,,0.00,Wunderground v.1.15,2013-05-12 18:13:00,
2013-05-12 11:18:00,81.2,57.2,30.08,SSE,159,10.0,12.0,44,0.00,,,0.00,Wunderground v.1.15,2013-05-12 18:18:00,
2013-05-12 11:23:00,81.7,56.4,30.08,SSE,168,4.0,12.0,42,0.00,,,0.00,Wunderground v.1.15,2013-05-12 18:23:00,
2013-05-12 11:28:00,81.7,55.7,30.08,SSE,165,3.0,12.0,41,0.00,,,0.00,Wunderground v.1.15,2013-05-12 18:28:00,
2013-05-12 11:33:00,81.9,55.9,30.08,SSW,208,5.0,13.0,41,0.00,,,0.00,Wunderground v.1.15,2013-05-12 18:33:00,
2013-05-12 11:38:00,82.2,56.8,30.08,South,178,8.0,13.0,42,0.00,,,0.00,Wunderground v.1.15,2013-05-12 18:38:00,
2013-05-12 11:43:00,82.6,56.5,30.08,South,190,8.0,11.0,41,0.00,,,0.00,Wunderground v.1.15,2013-05-12 18:43:00,
2013-05-12 11:48:00,83.0,56.9,30.08,SSW,195,8.0,11.0,41,0.00,,,0.00,Wunderground v.1.15,2013-05-12 18:48:00,
2013-05-12 11:53:00,83.4,55.8,30.08,South,188,5.0,11.0,39,0.00,,,0.00,Wunderground v.1.15,2013-05-12 18:53:00,
2013-05-12 11:58:00,83.7,55.4,30.08,SSE,153,7.0,11.0,38,0.00,,,0.00,Wunderground v.1.15,2013-05-12 18:58:00,
2013-05-12 12:03:00,83.9,56.3,30.08,SSW,202,4.0,9.0,39,0.00,,,0.00,Wunderground v.1.15,2013-05-12 19:03:00,
2013-05-12 12:08:00,84.3,56.6,30.08,South,186,7.0,13.0,39,0.00,,,0.00,Wunderground v.1.15,2013-05-12 19:08:00,
2013-05-12 12:13:00,84.7,57.0,30.08,South,183,3.0,13.0,39,0.00,,,0.00,Wunderground v.1.15,2013-05-12 19:13:00,
2013-05-12 12:18:00,85.5,55.5,30.07,SSE,165,9.0,13.0,36,0.00,,,0.00,Wunderground v.1.15,2013-05-12 19:18:00,
2013-05-12 12:23:00,85.6,57.1,30.07,South,188,7.0,11.0,38,0.00,,,0.00,Wunderground v.1.15,2013-05-12 19:23:00,
2013-05-12 12:28:00,85.5,57.0,30.07,SW,221,8.0,13.0,38,0.00,,,0.00,Wunderground v.1.15,2013-05-12 19:28:00,
2013-05-12 12:33:00,85.7,56.4,30.07,SSW,199,7.0,13.0,37,0.00,,,0.00,Wunderground v.1.15,2013-05-12 19:33:00,
2013-05-12 12:38:00,85.9,56.6,30.07,South,186,5.0,16.0,37,0.00,,,0.00,Wunderground v.1.15,2013-05-12 19:38:00,
2013-05-12 12:43:00,86.2,56.9,30.07,SSW,211,8.0,13.0,37,0.00,,,0.00,Wunderground v.1.15,2013-05-12 19:43:00,
2013-05-12 12:48:00,86.8,56.6,30.06,SSW,198,6.0,15.0,36,0.00,,,0.00,Wunderground v.1.15,2013-05-12 19:48:00,
2013-05-12 12:53:00,87.3,57.1,30.06,South,190,5.0,11.0,36,0.00,,,0.00,Wunderground v.1.15,2013-05-12 19:53:00,
2013-05-12 12:58:00,87.4,55.6,30.06,SSW,205,8.0,16.0,34,0.00,,,0.00,Wunderground v.1.15,2013-05-12 19:58:00,
2013-05-12 13:03:00,87.9,56.0,30.06,SSW,207,10.0,14.0,34,0.00,,,0.00,Wunderground v.1.15,2013-05-12 20:03:00,
2013-05-12 13:08:00,88.3,55.6,30.06,SSW,195,5.0,14.0,33,0.00,,,0.00,Wunderground v.1.15,2013-05-12 20:08:00,
2013-05-12 13:13:00,88.6,55.8,30.06,SW,218,9.0,12.0,33,0.00,,,0.00,Wunderground v.1.15,2013-05-12 20:13:00,
2013-05-12 13:18:00,88.8,56.0,30.06,SSW,197,5.0,16.0,33,0.00,,,0.00,Wunderground v.1.15,2013-05-12 20:18:00,
2013-05-12 13:23:00,88.8,55.1,30.06,SSW,194,7.0,14.0,32,0.00,,,0.00,Wunderground v.1.15,2013-05-12 20:23:00,
2013-05-12 13:28:00,89.4,57.3,30.05,South,178,7.0,15.0,34,0.00,,,0.00,Wunderground v.1.15,2013-05-12 20:28:00,
2013-05-12 13:33:00,89.3,57.3,30.05,SSW,213,7.0,15.0,34,0.00,,,0.00,Wunderground v.1.15,2013-05-12 20:33:00,
2013-05-12 13:38:00,89.3,57.3,30.05,SSW,196,4.0,15.0,34,0.00,,,0.00,Wunderground v.1.15,2013-05-12 20:38:00,
2013-05-12 13:43:00,89.1,57.9,30.06,SSW,194,12.0,14.0,35,0.00,,,0.00,Wunderground v.1.15,2013-05-12 20:43:00,
2013-05-12 13:48:00,88.6,58.2,30.05,South,179,4.0,15.0,36,0.00,,,0.00,Wunderground v.1.15,2013-05-12 20:48:00,
2013-05-12 13:53:00,88.6,56.6,30.05,SSW,208,7.0,12.0,34,0.00,,,0.00,Wunderground v.1.15,2013-05-12 20:53:00,
2013-05-12 13:58:00,89.2,57.2,30.05,SSE,155,7.0,12.0,34,0.00,,,0.00,Wunderground v.1.15,2013-05-12 20:58:00,
2013-05-12 14:03:00,89.5,55.7,30.05,South,170,9.0,13.0,32,0.00,,,0.00,Wunderground v.1.15,2013-05-12 21:03:00,
2013-05-12 14:08:00,89.8,51.4,30.05,SSW,213,9.0,13.0,27,0.00,,,0.00,Wunderground v.1.15,2013-05-12 21:08:00,
2013-05-12 14:13:00,90.3,54.7,30.04,SW,220,7.0,12.0,30,0.00,,,0.00,Wunderground v.1.15,2013-05-12 21:13:00,
2013-05-12 14:18:00,90.9,54.2,30.04,SSW,197,3.0,12.0,29,0.00,,,0.00,Wunderground v.1.15,2013-05-12 21:18:00,
2013-05-12 14:23:00,90.3,53.7,30.04,SW,229,8.0,13.0,29,0.00,,,0.00,Wunderground v.1.15,2013-05-12 21:23:00,
2013-05-12 14:28:00,89.9,56.1,30.04,SW,227,6.0,13.0,32,0.00,,,0.00,Wunderground v.1.15,2013-05-12 21:28:00,
2013-05-12 14:33:00,90.0,57.0,30.04,SW,216,6.0,11.0,33,0.00,,,0.00,Wunderground v.1.15,2013-05-12 21:33:00,
2013-05-12 14:38:00,90.1,58.0,30.04,SSW,205,5.0,15.0,34,0.00,,,0.00,Wunderground v.1.15,2013-05-12 21:38:00,
2013-05-12 14:43:00,90.1,58.8,30.04,South,189,5.0,10.0,35,0.00,,,0.00,Wunderground v.1.15,2013-05-12 21:43:00,
2013-05-12 14:48:00,90.2,58.0,30.03,SSW,213,7.0,13.0,34,0.00,,,0.00,Wunderground v.1.15,2013-05-12 21:48:00,
2013-05-12 14:53:00,89.8,58.5,30.03,SW,229,9.0,11.0,35,0.00,,,0.00,Wunderground v.1.15,2013-05-12 21:53:00,
2013-05-12 14:58:00,89.5,59.8,30.03,SSW,211,8.0,12.0,37,0.00,,,0.00,Wunderground v.1.15,2013-05-12 21:58:00,
2013-05-12 15:03:00,89.2,60.3,30.03,South,181,7.0,16.0,38,0.00,,,0.00,Wunderground v.1.15,2013-05-12 22:03:00,
2013-05-12 15:08:00,89.2,59.5,30.03,SW,235,8.0,16.0,37,0.00,,,0.00,Wunderground v.1.15,2013-05-12 22:08:00,
2013-05-12 15:13:00,89.5,59.0,30.02,SSW,200,4.0,12.0,36,0.00,,,0.00,Wunderground v.1.15,2013-05-12 22:13:00,
2013-05-12 15:18:00,90.0,59.5,30.02,South,180,5.0,16.0,36,0.00,,,0.00,Wunderground v.1.15,2013-05-12 22:18:00,
2013-05-12 15:23:00,90.1,59.5,30.02,SSW,213,6.0,12.0,36,0.00,,,0.00,Wunderground v.1.15,2013-05-12 22:23:00,
2013-05-12 15:28:00,90.3,58.1,30.02,WSW,237,11.0,12.0,34,0.00,,,0.00,Wunderground v.1.15,2013-05-12 22:28:00,
2013-05-12 15:33:00,90.6,58.4,30.02,South,188,7.0,9.0,34,0.00,,,0.00,Wunderground v.1.15,2013-05-12 22:33:00,
2013-05-12 15:38:00,90.5,59.1,30.01,WSW,242,9.0,13.0,35,0.00,,,0.00,Wunderground v.1.15,2013-05-12 22:38:00,
2013-05-12 15:44:00,90.6,58.4,30.01,WSW,242,10.0,13.0,34,0.00,,,0.00,Wunderground v.1.15,2013-05-12 22:44:00,
2013-05-12 15:49:00,90.3,58.1,30.01,SSW,211,9.0,13.0,34,0.00,,,0.00,Wunderground v.1.15,2013-05-12 22:49:00,
2013-05-12 15:54:00,90.1,58.0,30.01,WSW,240,8.0,15.0,34,0.00,,,0.00,Wunderground v.1.15,2013-05-12 22:54:00,
2013-05-12 15:59:00,89.9,59.4,30.01,SSW,204,3.0,15.0,36,0.00,,,0.00,Wunderground v.1.15,2013-05-12 22:59:00,
2013-05-12 16:04:00,90.2,58.8,30.00,SSW,203,8.0,13.0,35,0.00,,,0.00,Wunderground v.1.15,2013-05-12 23:04:00,
2013-05-12 16:09:00,89.7,59.2,30.00,SW,219,8.0,13.0,36,0.00,,,0.00,Wunderground v.1.15,2013-05-12 23:09:00,
2013-05-12 16:14:00,89.6,59.1,30.00,SW,217,6.0,12.0,36,0.00,,,0.00,Wunderground v.1.15,2013-05-12 23:14:00,
2013-05-12 16:19:00,89.4,58.9,30.00,SW,216,10.0,15.0,36,0.00,,,0.00,Wunderground v.1.15,2013-05-12 23:19:00,
2013-05-12 16:24:00,89.2,58.8,30.00,SW,234,8.0,15.0,36,0.00,,,0.00,Wunderground v.1.15,2013-05-12 23:24:00,
2013-05-12 16:29:00,89.1,59.4,29.99,SSW,211,7.0,15.0,37,0.00,,,0.00,Wunderground v.1.15,2013-05-12 23:29:00,
2013-05-12 16:34:00,89.0,58.6,29.99,SSW,209,5.0,14.0,36,0.00,,,0.00,Wunderground v.1.15,2013-05-12 23:34:00,
2013-05-12 16:39:00,89.2,58.8,29.99,WSW,243,10.0,14.0,36,0.00,,,0.00,Wunderground v.1.15,2013-05-12 23:39:00,
2013-05-12 16:44:00,89.3,58.1,29.99,SW,217,7.0,12.0,35,0.00,,,0.00,Wunderground v.1.15,2013-05-12 23:44:00,
2013-05-12 16:49:00,89.0,57.8,29.99,SW,236,7.0,14.0,35,0.00,,,0.00,Wunderground v.1.15,2013-05-12 23:49:00,
2013-05-12 16:54:00,88.5,58.9,29.99,SSW,208,11.0,15.0,37,0.00,,,0.00,Wunderground v.1.15,2013-05-12 23:54:00,
2013-05-12 16:59:00,88.1,58.6,29.99,SSW,211,7.0,15.0,37,0.00,,,0.00,Wunderground v.1.15,2013-05-12 23:59:00,
2013-05-12 17:04:00,87.8,58.3,29.99,SSW,206,10.0,14.0,37,0.00,,,0.00,Wunderground v.1.15,2013-05-13 00:04:00,
2013-05-12 17:09:00,87.4,57.9,29.99,SSW,192,8.0,14.0,37,0.00,,,0.00,Wunderground v.1.15,2013-05-13 00:09:00,
2013-05-12 17:14:00,87.3,58.6,29.99,SW,231,12.0,12.0,38,0.00,,,0.00,Wunderground v.1.15,2013-05-13 00:14:00,
2013-05-12 17:19:00,87.2,57.8,29.99,SSW,202,4.0,12.0,37,0.00,,,0.00,Wunderground v.1.15,2013-05-13 00:19:00,
2013-05-12 17:24:00,86.9,57.5,29.99,SW,236,9.0,13.0,37,0.00,,,0.00,Wunderground v.1.15,2013-05-13 00:24:00,
2013-05-12 17:29:00,86.5,57.1,29.99,SW,236,9.0,14.0,37,0.00,,,0.00,Wunderground v.1.15,2013-05-13 00:29:00,
2013-05-12 17:34:00,86.3,57.0,29.99,SW,223,7.0,15.0,37,0.00,,,0.00,Wunderground v.1.15,2013-05-13 00:34:00,
2013-05-12 17:39:00,86.3,57.7,29.99,SW,217,7.0,15.0,38,0.00,,,0.00,Wunderground v.1.15,2013-05-13 00:39:00,
2013-05-12 17:44:00,86.3,57.0,29.99,SSW,212,6.0,13.0,37,0.00,,,0.00,Wunderground v.1.15,2013-05-13 00:44:00,
2013-05-12 17:49:00,86.2,56.1,29.98,WSW,247,9.0,13.0,36,0.00,,,0.00,Wunderground v.1.15,2013-05-13 00:49:00,
2013-05-12 17:54:00,86.1,56.0,29.98,SSW,201,2.0,13.0,36,0.00,,,0.00,Wunderground v.1.15,2013-05-13 00:54:00,
2013-05-12 17:59:00,86.1,56.0,29.98,SSW,208,7.0,13.0,36,0.00,,,0.00,Wunderground v.1.15,2013-05-13 00:59:00,
2013-05-12 18:04:00,86.1,55.2,29.98,SW,230,5.0,10.0,35,0.00,,,0.00,Wunderground v.1.15,2013-05-13 01:04:00,
2013-05-12 18:09:00,85.9,55.1,29.98,SSW,209,6.0,11.0,35,0.00,,,0.00,Wunderground v.1.15,2013-05-13 01:09:00,
2013-05-12 18:14:00,85.7,54.9,29.97,SW,229,5.0,10.0,35,0.00,,,0.00,Wunderground v.1.15,2013-05-13 01:14:00,
2013-05-12 18:19:00,85.4,53.8,29.97,SW,218,8.0,12.0,34,0.00,,,0.00,Wunderground v.1.15,2013-05-13 01:19:00,
2013-05-12 18:25:00,85.0,53.5,29.97,SSW,212,7.0,12.0,34,0.00,,,0.00,Wunderground v.1.15,2013-05-13 01:25:00,
2013-05-12 18:30:00,84.7,53.2,29.97,SSW,194,4.0,7.0,34,0.00,,,0.00,Wunderground v.1.15,2013-05-13 01:30:00,
2013-05-12 18:35:00,84.5,53.0,29.97,SSW,203,2.0,11.0,34,0.00,,,0.00,Wunderground v.1.15,2013-05-13 01:35:00,
2013-05-12 18:40:00,84.2,52.8,29.97,SW,222,5.0,6.0,34,0.00,,,0.00,Wunderground v.1.15,2013-05-13 01:40:00,
2013-05-12 18:45:00,84.1,52.7,29.96,SSW,193,2.0,9.0,34,0.00,,,0.00,Wunderground v.1.15,2013-05-13 01:45:00,
2013-05-12 18:50:00,83.9,51.7,29.96,SW,221,6.0,7.0,33,0.00,,,0.00,Wunderground v.1.15,2013-05-13 01:50:00,
2013-05-12 18:55:00,83.5,51.4,29.96,SSW,203,6.0,11.0,33,0.00,,,0.00,Wunderground v.1.15,2013-05-13 01:55:00,
2013-05-12 19:00:00,82.9,51.6,29.96,SW,216,7.0,7.0,34,0.00,,,0.00,Wunderground v.1.15,2013-05-13 02:00:00,
2013-05-12 19:05:00,82.5,51.3,29.96,SW,216,6.0,13.0,34,0.00,,,0.00,Wunderground v.1.15,2013-05-13 02:05:00,
2013-05-12 19:10:00,82.0,50.9,29.96,South,190,4.0,5.0,34,0.00,,,0.00,Wunderground v.1.15,2013-05-13 02:10:00,
2013-05-12 19:15:00,81.7,50.6,29.96,SW,227,4.0,11.0,34,0.00,,,0.00,Wunderground v.1.15,2013-05-13 02:15:00,
2013-05-12 19:20:00,81.5,50.4,29.96,South,188,4.0,7.0,34,0.00,,,0.00,Wunderground v.1.15,2013-05-13 02:20:00,
2013-05-12 19:25:00,81.2,50.2,29.96,South,191,3.0,11.0,34,0.00,,,0.00,Wunderground v.1.15,2013-05-13 02:25:00,
2013-05-12 19:30:00,80.9,49.9,29.97,South,182,4.0,6.0,34,0.00,,,0.00,Wunderground v.1.15,2013-05-13 02:30:00,
2013-05-12 19:35:00,80.5,50.3,29.96,SW,215,6.0,11.0,35,0.00,,,0.00,Wunderground v.1.15,2013-05-13 02:35:00,
2013-05-12 19:40:00,79.9,49.8,29.97,SW,214,6.0,7.0,35,0.00,,,0.00,Wunderground v.1.15,2013-05-13 02:40:00,
2013-05-12 19:45:00,79.4,49.4,29.96,WSW,238,5.0,10.0,35,0.00,,,0.00,Wunderground v.1.15,2013-05-13 02:45:00,
2013-05-12 19:50:00,79.1,49.8,29.96,SSW,199,3.0,9.0,36,0.00,,,0.00,Wunderground v.1.15,2013-05-13 02:50:00,
2013-05-12 19:55:00,78.6,48.7,29.96,SSW,197,5.0,10.0,35,0.00,,,0.00,Wunderground v.1.15,2013-05-13 02:55:00,
2013-05-12 20:00:00,77.9,48.0,29.96,SSW,197,3.0,5.0,35,0.00,,,0.00,Wunderground v.1.15,2013-05-13 03:00:00,
2013-05-12 20:05:00,77.0,48.0,29.96,SSW,205,5.0,13.0,36,0.00,,,0.00,Wunderground v.1.15,2013-05-13 03:05:00,
2013-05-12 20:10:00,76.4,48.2,29.96,South,182,5.0,9.0,37,0.00,,,0.00,Wunderground v.1.15,2013-05-13 03:10:00,
2013-05-12 20:15:00,75.9,47.8,29.96,SSW,200,7.0,9.0,37,0.00,,,0.00,Wunderground v.1.15,2013-05-13 03:15:00,
2013-05-12 20:20:00,75.4,48.0,29.96,South,182,2.0,5.0,38,0.00,,,0.00,Wunderground v.1.15,2013-05-13 03:20:00,
2013-05-12 20:25:00,75.0,47.7,29.97,South,186,3.0,7.0,38,0.00,,,0.00,Wunderground v.1.15,2013-05-13 03:25:00,
2013-05-12 20:30:00,74.6,48.0,29.96,SSW,192,4.0,5.0,39,0.00,,,0.00,Wunderground v.1.15,2013-05-13 03:30:00,
2013-05-12 20:35:00,74.3,47.7,29.96,SSW,204,2.0,6.0,39,0.00,,,0.00,Wunderground v.1.15,2013-05-13 03:35:00,
2013-05-12 20:40:00,74.0,48.1,29.96,South,185,4.0,5.0,40,0.00,,,0.00,Wunderground v.1.15,2013-05-13 03:40:00,
2013-05-12 20:45:00,73.7,47.9,29.97,SSW,200,4.0,7.0,40,0.00,,,0.00,Wunderground v.1.15,2013-05-13 03:45:00,
2013-05-12 20:50:00,73.3,47.5,29.97,SSW,198,2.0,4.0,40,0.00,,,0.00,Wunderground v.1.15,2013-05-13 03:50:00,
2013-05-12 20:55:00,73.1,48.0,29.97,South,188,1.0,5.0,41,0.00,,,0.00,Wunderground v.1.15,2013-05-13 03:55:00,
2013-05-12 21:00:00,72.8,48.4,29.97,South,190,1.0,5.0,42,0.00,,,0.00,Wunderground v.1.15,2013-05-13 04:00:00,
2013-05-12 21:01:00,72.8,48.4,29.97,South,176,5.0,5.0,42,0.00,,,0.00,Wunderground v.1.15,2013-05-13 04:01:00,
2013-05-12 21:06:00,72.4,48.0,29.97,South,173,4.0,5.0,42,0.00,,,0.00,Wunderground v.1.15,2013-05-13 04:06:00,
2013-05-12 21:11:00,72.1,47.7,29.97,South,169,5.0,5.0,42,0.00,,,0.00,Wunderground v.1.15,2013-05-13 04:11:00,
2013-05-12 21:16:00,71.6,47.9,29.97,SSE,167,4.0,6.0,43,0.00,,,0.00,Wunderground v.1.15,2013-05-13 04:16:00,
2013-05-12 21:21:00,71.3,47.6,29.97,South,178,4.0,5.0,43,0.00,,,0.00,Wunderground v.1.15,2013-05-13 04:21:00,
2013-05-12 21:26:00,70.9,47.9,29.97,South,174,4.0,5.0,44,0.00,,,0.00,Wunderground v.1.15,2013-05-13 04:26:00,
2013-05-12 21:31:00,70.4,47.4,29.97,South,183,7.0,9.0,44,0.00,,,0.00,Wunderground v.1.15,2013-05-13 04:31:00,
2013-05-12 21:36:00,70.0,47.7,29.98,South,176,2.0,9.0,45,0.00,,,0.00,Wunderground v.1.15,2013-05-13 04:36:00,
2013-05-12 21:42:00,69.5,47.8,29.98,South,175,6.0,6.0,46,0.00,,,0.00,Wunderground v.1.15,2013-05-13 04:42:00,
2013-05-12 21:47:00,69.2,48.1,29.98,South,171,3.0,8.0,47,0.00,,,0.00,Wunderground v.1.15,2013-05-13 04:47:00,
2013-05-12 21:52:00,68.8,48.3,29.98,SSW,201,4.0,8.0,48,0.00,,,0.00,Wunderground v.1.15,2013-05-13 04:52:00,
2013-05-12 21:57:00,68.4,47.9,29.98,South,184,5.0,11.0,48,0.00,,,0.00,Wunderground v.1.15,2013-05-13 04:57:00,
2013-05-12 22:02:00,68.0,48.1,29.98,South,183,2.0,10.0,49,0.00,,,0.00,Wunderground v.1.15,2013-05-13 05:02:00,
2013-05-12 22:07:00,67.6,47.8,29.98,South,178,4.0,10.0,49,0.00,,,0.00,Wunderground v.1.15,2013-05-13 05:07:00,
2013-05-12 22:12:00,67.4,48.1,29.98,South,175,2.0,7.0,50,0.00,,,0.00,Wunderground v.1.15,2013-05-13 05:12:00,
2013-05-12 22:17:00,67.4,48.1,29.98,South,173,4.0,7.0,50,0.00,,,0.00,Wunderground v.1.15,2013-05-13 05:17:00,
2013-05-12 22:22:00,67.4,48.1,29.98,SSW,194,7.0,7.0,50,0.00,,,0.00,Wunderground v.1.15,2013-05-13 05:22:00,
2013-05-12 22:27:00,67.4,48.1,29.98,SSW,196,2.0,8.0,50,0.00,,,0.00,Wunderground v.1.15,2013-05-13 05:27:00,
2013-05-12 22:32:00,67.4,48.1,29.98,SSE,167,4.0,10.0,50,0.00,,,0.00,Wunderground v.1.15,2013-05-13 05:32:00,
2013-05-12 22:37:00,67.1,47.8,29.98,SSW,199,5.0,10.0,50,0.00,,,0.00,Wunderground v.1.15,2013-05-13 05:37:00,
2013-05-12 22:42:00,66.8,47.6,29.98,SW,214,9.0,9.0,50,0.00,,,0.00,Wunderground v.1.15,2013-05-13 05:42:00,
2013-05-12 22:47:00,66.4,47.7,29.98,South,188,7.0,9.0,51,0.00,,,0.00,Wunderground v.1.15,2013-05-13 05:47:00,
2013-05-12 22:52:00,66.1,48.0,29.98,SSW,192,3.0,8.0,52,0.00,,,0.00,Wunderground v.1.15,2013-05-13 05:52:00,
2013-05-12 22:57:00,65.9,48.3,29.98,SSW,207,7.0,10.0,53,0.00,,,0.00,Wunderground v.1.15,2013-05-13 05:57:00,
2013-05-12 23:02:00,65.8,48.2,29.98,South,177,4.0,10.0,53,0.00,,,0.00,Wunderground v.1.15,2013-05-13 06:02:00,
2013-05-12 23:07:00,65.6,48.5,29.98,SSW,207,7.0,11.0,54,0.00,,,0.00,Wunderground v.1.15,2013-05-13 06:07:00,
2013-05-12 23:12:00,65.5,48.4,29.98,SSW,210,6.0,9.0,54,0.00,,,0.00,Wunderground v.1.15,2013-05-13 06:12:00,
2013-05-12 23:17:00,65.4,48.8,29.98,SSW,198,5.0,11.0,55,0.00,,,0.00,Wunderground v.1.15,2013-05-13 06:17:00,
2013-05-12 23:22:00,65.1,48.5,29.98,SSW,203,6.0,9.0,55,0.00,,,0.00,Wunderground v.1.15,2013-05-13 06:22:00,
2013-05-12 23:27:00,64.8,48.7,29.98,South,177,5.0,10.0,56,0.00,,,0.00,Wunderground v.1.15,2013-05-13 06:27:00,
2013-05-12 23:32:00,64.7,48.6,29.98,South,188,6.0,8.0,56,0.00,,,0.00,Wunderground v.1.15,2013-05-13 06:32:00,
2013-05-12 23:37:00,64.7,48.6,29.98,SSW,204,3.0,9.0,56,0.00,,,0.00,Wunderground v.1.15,2013-05-13 06:37:00,
2013-05-12 23:42:00,64.9,48.3,29.97,South,174,4.0,9.0,55,0.00,,,0.00,Wunderground v.1.15,2013-05-13 06:42:00,
2013-05-12 23:47:00,64.8,48.2,29.97,SSW,194,7.0,9.0,55,0.00,,,0.00,Wunderground v.1.15,2013-05-13 06:47:00,
2013-05-12 23:52:00,64.7,48.2,29.97,South,180,7.0,9.0,55,0.00,,,0.00,Wunderground v.1.15,2013-05-13 06:52:00,
2013-05-12 23:57:00,64.5,48.4,29.97,SSW,193,4.0,9.0,56,0.00,,,0.00,Wunderground v.1.15,2013-05-13 06:57:00,